OE7DRT-13 Weather Reports


Display with metric or nautical units.
time (UTC)temp
F
wind
direction
speed
MPH
gust
MPH
rain 1hr
in
rain 24hr
in
rain mn
in
humidity
%
barometer
mb
20260504081521 59 141 1.0 3.0 0.00 0.00 0.00 50 1016.2
20260504081019 59 339 1.0 4.0 0.00 0.00 0.00 47 1016.1
20260504080517 59 3 0.0 2.0 0.00 0.00 0.00 49 1016.2
20260504050516 51 186 0.0 2.0 0.00 0.00 0.00 61 1016.7
20260504045533 50 195 1.0 2.0 0.00 0.00 0.00 62 1016.7
20260504045031 49 0.0 0.0 0.00 0.00 0.00 65 1016.8
20260504044529 50 0.0 0.0 0.00 0.00 0.00 63 1016.8
20260504044028 50 103 0.0 1.0 0.00 0.00 0.00 62 1016.8
20260504043546 51 211 0.0 2.0 0.00 0.00 0.00 59 1016.8
20260504043025 51 207 0.0 1.0 0.00 0.00 0.00 58 1016.8
20260504042543 52 216 1.0 2.0 0.00 0.00 0.00 56 1016.8
20260504042021 51 233 1.0 4.0 0.00 0.00 0.00 55 1016.7
20260504041519 51 218 1.0 3.0 0.00 0.00 0.00 57 1016.7
20260504041018 51 232 2.0 4.0 0.00 0.00 0.00 56 1016.7
20260504040516 51 237 2.0 3.0 0.00 0.00 0.00 56 1016.6
20260504040035 51 223 1.0 3.0 0.00 0.00 0.00 56 1016.7
20260504035533 51 227 1.0 2.0 0.00 0.00 0.00 55 1016.7
20260504035031 51 242 2.0 4.0 0.00 0.00 0.00 55 1016.7
20260504034530 51 222 2.0 6.0 0.00 0.00 0.00 55 1016.7
20260504034028 51 226 2.0 6.0 0.00 0.00 0.00 55 1016.7
20260504033546 51 247 2.0 4.0 0.00 0.00 0.00 55 1016.8
20260504033025 52 233 2.0 4.0 0.00 0.00 0.00 55 1016.8
20260504032523 51 218 3.0 4.0 0.00 0.00 0.00 56 1016.8
20260504032022 51 228 1.0 4.0 0.00 0.00 0.00 57 1016.8
20260504031520 51 254 1.0 3.0 0.00 0.00 0.00 57 1016.8
20260504031020 50 216 1.0 3.0 0.00 0.00 0.00 58 1016.8
20260504030516 50 225 0.0 3.0 0.00 0.00 0.00 60 1016.8
20260504030035 50 239 0.0 2.0 0.00 0.00 0.00 60 1016.9
20260504025533 50 0.0 0.0 0.00 0.00 0.00 61 1016.9
20260504025032 50 326 0.0 1.0 0.00 0.00 0.00 60 1016.8
20260504024530 50 0.0 0.0 0.00 0.00 0.00 60 1016.8
20260504024029 50 298 0.0 1.0 0.00 0.00 0.00 61 1016.8
20260504023527 50 224 0.0 1.0 0.00 0.00 0.00 61 1016.9
20260504023025 51 0.0 0.0 0.00 0.00 0.00 60 1016.7
20260504022523 51 229 0.0 1.0 0.00 0.00 0.00 61 1016.6
20260504022021 51 0.0 0.0 0.00 0.00 0.00 60 1016.7
20260504021520 51 0.0 0.0 0.00 0.00 0.00 60 1016.7
20260504021018 51 0.0 0.0 0.00 0.00 0.00 61 1016.6
20260504020517 51 0.0 0.0 0.00 0.00 0.00 60 1016.6
20260504020035 51 188 0.0 2.0 0.00 0.00 0.00 60 1016.6
20260504015533 51 0.0 0.0 0.00 0.00 0.00 60 1016.6
20260504015032 52 0.0 0.0 0.00 0.00 0.00 61 1016.6
20260504014530 52 207 0.0 1.0 0.00 0.00 0.00 60 1016.5
20260504014048 52 0.0 0.0 0.00 0.00 0.00 59 1016.4
20260504013527 52 239 0.0 1.0 0.00 0.00 0.00 59 1016.5
20260504013026 52 0.0 0.0 0.00 0.00 0.00 61 1016.5
20260504012543 53 0.0 0.0 0.00 0.00 0.00 59 1016.5
20260504012022 53 0.0 0.0 0.00 0.00 0.00 58 1016.6
20260504011520 52 0.0 0.0 0.00 0.00 0.00 59 1016.6
20260504011018 52 0.0 0.0 0.00 0.00 0.00 61 1016.5
20260504010517 53 0.0 0.0 0.00 0.00 0.00 61 1016.6
20260504010035 53 0.0 0.0 0.00 0.00 0.00 58 1016.4
20260504005533 53 0.0 0.0 0.00 0.00 0.00 59 1016.6
20260504005032 53 0.0 0.0 0.00 0.00 0.00 60 1016.5
20260504004530 53 0.0 0.0 0.00 0.00 0.00 59 1016.6
20260504004028 53 0.0 0.0 0.00 0.00 0.00 58 1016.6
20260504003526 54 0.0 0.0 0.00 0.00 0.00 58 1016.7
20260504003025 55 0.0 0.0 0.00 0.00 0.00 57 1016.7
20260504002523 54 233 1.0 2.0 0.00 0.00 0.00 54 1016.9
20260504002021 54 0.0 0.0 0.00 0.00 0.00 57 1016.8
20260504001519 54 0.0 0.0 0.00 0.00 0.00 58 1017.0
20260504001018 53 0.0 0.0 0.00 0.00 0.00 59 1017.0
20260504000536 54 0.0 0.0 0.00 0.00 0.00 59 1017.0
20260504000035 54 0.0 0.0 0.00 0.00 0.00 59 1017.0
20260503235533 54 0.0 0.0 0.00 0.00 0.00 59 1016.9
20260503235031 54 0.0 0.0 0.00 0.00 0.00 58 1016.9
20260503234529 54 0.0 0.0 0.00 0.00 0.00 58 1016.9
20260503234028 54 0.0 0.0 0.00 0.00 0.00 58 1016.8
20260503233526 55 0.0 0.0 0.00 0.00 0.00 56 1016.9
20260503233045 55 0.0 0.0 0.00 0.00 0.00 57 1016.9
20260503232522 54 0.0 0.0 0.00 0.00 0.00 57 1016.9
20260503232021 54 0.0 0.0 0.00 0.00 0.00 58 1016.8
20260503231519 55 0.0 0.0 0.00 0.00 0.00 57 1016.9
20260503231017 55 40 0.0 1.0 0.00 0.00 0.00 57 1016.9
20260503230516 55 0.0 0.0 0.00 0.00 0.00 56 1016.8
20260503230118 55 0.0 0.0 0.00 0.00 0.00 58 1016.9
20260503225532 55 0.0 0.0 0.00 0.00 0.00 56 1016.9
20260503225031 55 305 0.0 1.0 0.00 0.00 0.00 56 1016.9
20260503224530 55 18 0.0 1.0 0.00 0.00 0.00 56 1016.9
20260503224028 55 0.0 0.0 0.00 0.00 0.00 55 1016.8
20260503223526 55 214 0.0 1.0 0.00 0.00 0.00 57 1016.8
20260503223024 55 44 0.0 3.0 0.00 0.00 0.00 56 1016.9
20260503222524 55 11 0.0 1.0 0.00 0.00 0.00 55 1016.8
20260503222041 55 0.0 0.0 0.00 0.00 0.00 56 1016.7
20260503221519 55 101 1.0 2.0 0.00 0.00 0.00 54 1016.7
20260503221018 56 0.0 0.0 0.00 0.00 0.00 54 1016.6
20260503220516 56 0.0 0.0 0.00 0.00 0.00 53 1016.6
20260503220034 56 168 0.0 2.0 0.00 0.00 0.00 52 1016.5
20260503215533 56 209 0.0 2.0 0.00 0.00 0.00 53 1016.7
20260503215031 56 223 0.0 1.0 0.00 0.00 0.00 53 1016.6
20260503214530 55 0.0 0.0 0.00 0.00 0.00 55 1016.6
20260503214028 56 0.0 0.0 0.00 0.00 0.00 53 1016.6
20260503213527 56 0.0 0.0 0.00 0.00 0.00 55 1016.5
20260503213044 56 236 0.0 1.0 0.00 0.00 0.00 53 1016.6
20260503212523 56 351 0.0 1.0 0.00 0.00 0.00 53 1016.5
20260503212021 55 305 0.0 1.0 0.00 0.00 0.00 54 1016.5
20260503211620 55 0.0 0.0 0.00 0.00 0.00 56 1016.4
20260503211019 56 0.0 0.0 0.00 0.00 0.00 54 1016.4
20260503210516 55 0.0 0.0 0.00 0.00 0.00 54 1016.4
20260503210034 56 235 0.0 2.0 0.00 0.00 0.00 55 1016.4
20260503205533 56 235 0.0 1.0 0.00 0.00 0.00 54 1016.4
20260503205032 57 0.0 0.0 0.00 0.00 0.00 52 1016.4
20260503204711 58 162 0.0 3.0 0.00 0.00 0.00 50 1016.3
20260503204109 57 21 3.0 10.0 0.00 0.00 0.00 50 1016.3
20260503203526 56 0.0 0.0 0.00 0.00 0.00 53 1016.2
20260503203024 56 8 0.0 1.0 0.00 0.00 0.00 55 1016.2
20260503202523 56 238 0.0 2.0 0.00 0.00 0.00 54 1016.3
20260503202021 56 188 0.0 2.0 0.00 0.00 0.00 54 1016.2
20260503201519 57 0.0 0.0 0.00 0.00 0.00 53 1016.3
20260503201038 57 293 0.0 1.0 0.00 0.00 0.00 52 1016.2
20260503200516 57 28 0.0 1.0 0.00 0.00 0.00 52 1016.2
20260503200034 57 0.0 0.0 0.00 0.00 0.00 52 1016.1
20260503195553 56 333 0.0 1.0 0.00 0.00 0.00 54 1016.1
20260503195031 57 0.0 0.0 0.00 0.00 0.00 54 1016.1
20260503194529 57 0.0 0.0 0.00 0.00 0.00 52 1016.2
20260503194027 57 228 0.0 1.0 0.00 0.00 0.00 51 1016.1
20260503193525 57 0.0 0.0 0.00 0.00 0.00 52 1016.1
20260503193024 58 0.0 0.0 0.00 0.00 0.00 52 1016.1
20260503192542 58 0.0 0.0 0.00 0.00 0.00 52 1016.0
20260503192023 58 0.0 0.0 0.00 0.00 0.00 51 1015.9
20260503191521 59 168 0.0 1.0 0.00 0.00 0.00 51 1015.9
20260503191037 59 196 0.0 2.0 0.00 0.00 0.00 48 1015.9
20260503190515 59 244 0.0 2.0 0.00 0.00 0.00 49 1015.9
20260503190034 59 227 0.0 1.0 0.00 0.00 0.00 49 1015.7
20260503185552 60 0.0 0.0 0.00 0.00 0.00 48 1015.8
20260503184542 60 12 0.0 1.0 0.00 0.00 0.00 47 1015.8
20260503184020 61 214 0.0 1.0 0.00 0.00 0.00 47 1015.7
20260503183519 62 195 0.0 2.0 0.00 0.00 0.00 45 1015.7
20260503183017 64 329 1.0 4.0 0.00 0.00 0.00 41 1015.8
20260503182536 64 15 0.0 1.0 0.00 0.00 0.00 38 1015.7
20260503182034 64 348 4.0 10.0 0.00 0.00 0.00 38 1015.6
20260503181552 64 357 2.0 4.0 0.00 0.00 0.00 38 1015.6
20260503181132 63 352 2.0 4.0 0.00 0.00 0.00 39 1015.6
20260503180529 64 0.0 0.0 0.00 0.00 0.00 42 1015.6
20260503180027 65 37 0.0 2.0 0.00 0.00 0.00 38 1015.5
20260503175525 65 345 2.0 7.0 0.00 0.00 0.00 37 1015.5
20260503175025 64 343 2.0 13.0 0.00 0.00 0.00 38 1015.4
20260503174521 65 0.0 0.0 0.00 0.00 0.00 39 1015.4
20260503174020 65 319 0.0 2.0 0.00 0.00 0.00 37 1015.4
20260503173518 65 347 2.0 6.0 0.00 0.00 0.00 36 1015.4
20260503173017 65 331 2.0 6.0 0.00 0.00 0.00 36 1015.3
20260503172555 66 12 2.0 6.0 0.00 0.00 0.00 34 1015.3
20260503172053 66 208 0.0 1.0 0.00 0.00 0.00 36 1015.3
20260503171552 66 341 3.0 7.0 0.00 0.00 0.00 34 1015.2
20260503171030 67 339 2.0 4.0 0.00 0.00 0.00 34 1015.2
20260503170548 67 358 0.0 1.0 0.00 0.00 0.00 34 1015.1
20260503170146 67 330 1.0 3.0 0.00 0.00 0.00 33 1015.2
20260503150607 69 350 6.0 14.0 0.00 0.00 0.00 30 1015.2
20260503131046 72 8 3.0 8.0 0.00 0.00 0.00 27 1015.8
20260503130525 71 333 1.0 8.0 0.00 0.00 0.00 26 1015.8
20260503110522 70 314 1.0 6.0 0.00 0.00 0.00 24 1016.0